contact:dominique.lefevre@mio.osupytheas.fr, maurice.libes@osupytheas.fr, didier.mallarino@osupytheas.fr
Project:EMSO http://www.emso-fr.org/EMSO-France
Depth: 2436.0 m
Title:EMSO Ligure Ouest : Data MII capteur AQUADOPP
Date,Latitude,Longitude,X_East,Y_North,Z_Up,Amplitude_X,Amplitude_Y,Amplitude_Z,Batterie,SoundSpeed,Heading,Pitch,Roll,Pressure,TIS,Speed,Direction
, degrees North, degrees East, m.s-1, m.s-1,m.s-1, 1, 1, 1, Volt, m.s-1, degree, degree, degree, dbar, degree_C, m.s-1, degree
2023-11-21T00:04:03,42.805,6.029,-0.038,-0.025,-0.041,109.0,107.0,105.0,13.4,1505.2,340.4,-0.7,1.8,2471.558,13.28,0.045,236.7
2023-11-21T00:07:03,42.805,6.029,-0.045,-0.019,-0.003,107.0,108.0,106.0,13.4,1505.2,358.1,-0.7,1.8,2471.551,13.29,0.048,247.1
2023-11-21T00:10:03,42.805,6.029,-0.043,-0.03,-0.034,109.0,107.0,105.0,13.4,1505.2,340.4,-0.8,1.8,2471.535,13.29,0.052,235.1
2023-11-21T00:13:03,42.805,6.029,-0.062,-0.031,-0.009,109.0,109.0,106.0,13.4,1505.2,354.4,-0.8,1.8,2471.545,13.29,0.069,243.4
2023-11-21T00:16:03,42.805,6.029,-0.051,-0.021,-0.023,108.0,108.0,105.0,13.4,1505.2,349.3,-0.8,1.8,2471.483,13.29,0.055,247.6
2023-11-21T00:19:03,42.805,6.029,-0.043,-0.039,-0.018,110.0,108.0,105.0,13.4,1505.2,346.8,-0.8,1.8,2471.544,13.29,0.058,227.8
2023-11-21T00:22:03,42.805,6.029,-0.042,-0.023,-0.012,109.0,108.0,105.0,13.3,1505.2,0.8,-0.8,1.8,2471.502,13.29,0.047,241.3
2023-11-21T00:25:03,42.805,6.029,-0.063,-0.006,-0.014,109.0,109.0,106.0,13.4,1505.2,355.4,-0.7,1.8,2471.486,13.29,0.063,264.6
2023-11-21T00:28:03,42.805,6.029,-0.079,-0.01,-0.02,109.0,109.0,106.0,13.4,1505.2,359.1,-0.8,1.8,2471.491,13.29,0.079,262.8
2023-11-21T00:31:03,42.805,6.029,-0.031,-0.014,-0.013,110.0,108.0,106.0,13.4,1505.2,354.3,-0.8,1.8,2471.502,13.29,0.034,245.7
2023-11-21T00:34:03,42.805,6.029,-0.043,-0.018,0.022,109.0,108.0,106.0,13.4,1505.2,344.0,-0.8,1.8,2471.489,13.29,0.046,247.3
2023-11-21T00:37:03,42.805,6.029,-0.046,-0.034,-0.031,109.0,109.0,105.0,13.4,1505.2,351.1,-0.8,1.8,2471.475,13.29,0.057,233.5
2023-11-21T00:40:03,42.805,6.029,-0.046,-0.018,-0.044,108.0,107.0,106.0,13.4,1505.2,343.2,-0.8,1.8,2471.486,13.29,0.049,248.6
2023-11-21T00:43:03,42.805,6.029,-0.037,-0.03,-0.008,109.0,109.0,106.0,13.3,1505.2,343.8,-0.8,1.8,2471.512,13.29,0.047,231.0
2023-11-21T00:46:03,42.805,6.029,-0.06,-0.046,-0.014,109.0,108.0,106.0,13.3,1505.2,338.2,-0.7,1.8,2471.51,13.29,0.075,232.5
2023-11-21T00:49:03,42.805,6.029,-0.045,-0.03,-0.009,109.0,108.0,106.0,13.4,1505.2,348.8,-0.8,1.8,2471.522,13.29,0.054,236.3
2023-11-21T00:52:03,42.805,6.029,-0.018,-0.019,-0.004,109.0,110.0,105.0,13.4,1505.2,341.8,-0.7,1.8,2471.519,13.29,0.026,223.5
2023-11-21T00:55:03,42.805,6.029,-0.05,-0.028,-0.04,110.0,109.0,107.0,13.4,1505.2,344.8,-0.7,1.8,2471.536,13.29,0.057,240.7
2023-11-21T00:58:03,42.805,6.029,-0.02,-0.024,-0.026,109.0,108.0,105.0,13.4,1505.2,346.3,-0.7,1.8,2471.468,13.29,0.031,219.8
2023-11-21T02:04:02,42.805,6.029,-0.043,-0.025,-0.053,109.0,109.0,107.0,13.4,1505.2,347.2,-0.8,1.9,2472.018,13.28,0.049,239.8
2023-11-21T02:07:03,42.805,6.029,-0.044,-0.052,-0.046,109.0,107.0,105.0,13.3,1505.2,337.0,-0.7,1.8,2471.929,13.28,0.068,220.2
2023-11-21T02:10:03,42.805,6.029,-0.047,-0.012,-0.055,108.0,109.0,105.0,13.4,1505.2,349.6,-0.8,1.8,2471.835,13.28,0.048,255.7
2023-11-21T02:13:03,42.805,6.029,-0.046,-0.013,-0.018,107.0,109.0,106.0,13.3,1505.2,339.3,-0.8,1.8,2471.768,13.28,0.047,254.2
2023-11-21T02:16:03,42.805,6.029,-0.044,-0.041,-0.005,107.0,108.0,107.0,13.3,1505.2,348.8,-0.8,1.8,2471.72,13.29,0.06,227.0
2023-11-21T02:19:03,42.805,6.029,-0.053,-0.022,-0.005,108.0,108.0,107.0,13.3,1505.2,347.9,-0.8,1.8,2471.626,13.29,0.057,247.5
2023-11-21T02:22:03,42.805,6.029,-0.047,-0.047,-0.029,109.0,108.0,106.0,13.4,1505.2,341.8,-0.8,1.8,2471.6,13.29,0.066,225.0
2023-11-21T02:25:03,42.805,6.029,-0.038,-0.021,-0.02,109.0,109.0,105.0,13.3,1505.2,337.0,-0.8,1.8,2471.576,13.29,0.043,241.1
2023-11-21T02:28:03,42.805,6.029,-0.032,-0.026,-0.01,108.0,108.0,106.0,13.4,1505.2,343.8,-0.8,1.8,2471.56,13.29,0.041,230.9
2023-11-21T02:31:03,42.805,6.029,-0.051,-0.032,-0.017,110.0,107.0,106.0,13.4,1505.2,343.5,-0.8,1.8,2471.482,13.29,0.06,237.9
2023-11-21T02:34:03,42.805,6.029,-0.059,-0.024,0.002,109.0,107.0,107.0,13.4,1505.2,342.8,-0.8,1.8,2471.482,13.29,0.063,247.9
2023-11-21T02:37:03,42.805,6.029,-0.049,-0.024,-0.011,111.0,107.0,106.0,13.3,1505.2,0.8,-0.8,1.8,2471.502,13.29,0.054,243.9
2023-11-21T02:40:03,42.805,6.029,-0.038,-0.042,-0.027,108.0,109.0,105.0,13.4,1505.2,335.2,-0.7,1.8,2471.493,13.29,0.056,222.1
2023-11-21T02:43:03,42.805,6.029,-0.041,-0.021,-0.065,109.0,107.0,106.0,13.4,1505.2,349.4,-0.8,1.8,2471.495,13.29,0.046,242.9
2023-11-21T02:46:03,42.805,6.029,-0.03,-0.03,-0.009,109.0,108.0,105.0,13.3,1505.2,339.9,-0.8,1.8,2471.478,13.29,0.042,225.0
2023-11-21T02:49:03,42.805,6.029,-0.031,-0.027,-0.021,108.0,107.0,105.0,13.4,1505.2,358.2,-0.8,1.8,2471.504,13.29,0.041,228.9
2023-11-21T02:52:03,42.805,6.029,-0.03,-0.012,-0.006,108.0,106.0,106.0,13.4,1505.2,351.8,-0.8,1.8,2471.489,13.29,0.032,248.2
2023-11-21T02:55:03,42.805,6.029,-0.056,-0.02,-0.024,108.0,109.0,106.0,13.4,1505.2,356.8,-0.8,1.8,2471.438,13.29,0.059,250.4
2023-11-21T02:58:03,42.805,6.029,-0.06,-0.006,-0.005,109.0,107.0,105.0,13.4,1505.2,349.1,-0.8,1.8,2471.474,13.29,0.06,264.3
2023-11-21T03:04:03,42.805,6.029,-0.034,-0.029,-0.002,108.0,109.0,106.0,13.4,1505.2,349.1,-0.8,1.8,2471.557,13.28,0.044,229.5
2023-11-21T03:07:03,42.805,6.029,-0.052,-0.011,-0.021,108.0,108.0,105.0,13.4,1505.2,344.7,-0.8,1.8,2471.497,13.29,0.053,258.1
2023-11-21T03:10:03,42.805,6.029,-0.063,-0.03,-0.024,108.0,108.0,106.0,13.4,1505.2,359.1,-0.8,1.8,2471.501,13.29,0.069,244.5
2023-11-21T03:13:03,42.805,6.029,-0.028,-0.009,-0.012,109.0,107.0,105.0,13.4,1505.2,352.5,-0.7,1.8,2471.5,13.29,0.029,252.2
2023-11-21T03:16:03,42.805,6.029,-0.047,-0.023,-0.05,108.0,108.0,105.0,13.4,1505.2,355.4,-0.8,1.8,2471.563,13.29,0.052,243.9
2023-11-21T03:19:03,42.805,6.029,-0.05,-0.011,-0.024,110.0,106.0,106.0,13.4,1505.2,0.8,-0.8,1.8,2471.477,13.29,0.051,257.6
2023-11-21T03:22:03,42.805,6.029,-0.029,-0.025,-0.009,109.0,108.0,105.0,13.4,1505.2,335.7,-0.8,1.8,2471.51,13.29,0.038,229.2
2023-11-21T03:25:03,42.805,6.029,-0.035,-0.021,-0.009,109.0,108.0,107.0,13.3,1505.2,349.0,-0.8,1.8,2471.507,13.29,0.04,239.0
2023-11-21T03:28:03,42.805,6.029,-0.051,-0.008,-0.006,107.0,109.0,107.0,13.4,1505.2,358.3,-0.8,1.8,2471.482,13.29,0.051,261.1
2023-11-21T03:31:03,42.805,6.029,-0.041,-0.019,-0.014,110.0,107.0,106.0,13.3,1505.2,354.5,-0.8,1.8,2471.474,13.29,0.045,245.1
2023-11-21T03:34:03,42.805,6.029,-0.041,-0.041,-0.012,109.0,107.0,107.0,13.4,1505.2,343.0,-0.8,1.8,2471.462,13.29,0.057,225.0
2023-11-21T03:37:03,42.805,6.029,-0.046,-0.003,-0.017,109.0,108.0,106.0,13.3,1505.2,342.8,-0.8,1.8,2471.49,13.29,0.046,266.3
2023-11-21T03:40:03,42.805,6.029,-0.035,-0.025,-0.03,109.0,107.0,107.0,13.4,1505.2,335.5,-0.8,1.8,2471.472,13.29,0.043,234.5
2023-11-21T03:43:03,42.805,6.029,-0.034,-0.017,-0.03,109.0,106.0,106.0,13.3,1505.2,345.1,-0.8,1.8,2471.467,13.29,0.038,243.4
2023-11-21T03:46:03,42.805,6.029,-0.042,-0.029,-0.03,108.0,108.0,106.0,13.4,1505.2,340.7,-0.8,1.8,2471.481,13.29,0.051,235.4
2023-11-21T03:49:03,42.805,6.029,-0.042,-0.009,-0.034,109.0,108.0,106.0,13.4,1505.2,355.2,-0.7,1.8,2471.485,13.29,0.042,257.9
2023-11-21T03:52:03,42.805,6.029,-0.041,-0.012,-0.048,109.0,107.0,105.0,13.3,1505.2,352.6,-0.8,1.8,2471.457,13.29,0.042,253.7
2023-11-21T03:55:03,42.805,6.029,-0.046,-0.012,-0.032,108.0,108.0,105.0,13.4,1505.2,359.1,-0.8,1.8,2471.51,13.29,0.047,255.4
2023-11-21T03:58:03,42.805,6.029,-0.035,-0.027,-0.021,109.0,108.0,105.0,13.4,1505.2,352.6,-0.8,1.8,2471.482,13.29,0.044,232.3
2023-11-21T04:04:03,42.805,6.029,-0.03,-0.025,-0.017,109.0,108.0,106.0,13.4,1505.2,348.8,-0.8,1.8,2471.503,13.29,0.039,230.2
2023-11-21T04:07:03,42.805,6.029,-0.05,-0.005,-0.03,109.0,108.0,107.0,13.4,1505.2,1.7,-0.7,1.8,2471.558,13.29,0.05,264.3
2023-11-21T04:10:03,42.805,6.029,-0.03,-0.02,-0.022,109.0,108.0,106.0,13.3,1505.2,353.4,-0.7,1.8,2471.517,13.29,0.036,236.3
2023-11-21T04:13:03,42.805,6.029,-0.048,-0.011,-0.029,109.0,108.0,106.0,13.4,1505.2,355.7,-0.8,1.8,2471.488,13.29,0.049,257.1
2023-11-21T04:16:03,42.805,6.029,-0.042,-0.029,-0.036,109.0,109.0,106.0,13.4,1505.2,348.0,-0.8,1.8,2471.509,13.29,0.051,235.4
2023-11-21T04:19:03,42.805,6.029,-0.05,-0.006,-0.012,108.0,107.0,107.0,13.3,1505.2,358.1,-0.8,1.8,2471.489,13.29,0.05,263.2
2023-11-21T04:22:03,42.805,6.029,-0.039,-0.017,-0.031,109.0,108.0,106.0,13.4,1505.2,345.7,-0.7,1.8,2471.495,13.29,0.042,246.5
2023-11-21T04:25:03,42.805,6.029,-0.048,-0.015,-0.014,110.0,109.0,107.0,13.4,1505.2,347.1,-0.8,1.8,2471.469,13.29,0.05,252.6
2023-11-21T04:28:03,42.805,6.029,-0.064,-0.01,-0.038,109.0,107.0,105.0,13.4,1505.2,348.6,-0.8,1.8,2471.484,13.29,0.064,261.1
2023-11-21T04:31:03,42.805,6.029,-0.042,-0.037,-0.029,110.0,108.0,106.0,13.4,1505.2,342.3,-0.8,1.8,2471.447,13.29,0.055,228.6
2023-11-21T04:34:03,42.805,6.029,-0.046,-0.017,-0.026,108.0,108.0,106.0,13.4,1505.2,351.3,-0.8,1.8,2471.489,13.29,0.049,249.7
2023-11-21T04:37:03,42.805,6.029,-0.028,-0.027,-0.013,110.0,108.0,105.0,13.4,1505.2,337.6,-0.7,1.8,2471.46,13.29,0.038,226.0
2023-11-21T04:40:03,42.805,6.029,-0.035,0.002,-0.031,108.0,108.0,106.0,13.4,1505.2,348.5,-0.8,1.8,2471.484,13.29,0.035,273.3
2023-11-21T04:43:03,42.805,6.029,-0.026,-0.042,-0.052,109.0,108.0,106.0,13.4,1505.2,336.0,-0.7,1.8,2471.434,13.29,0.049,211.8
2023-11-21T04:46:03,42.805,6.029,-0.048,-0.031,-0.016,109.0,108.0,106.0,13.4,1505.2,341.5,-0.7,1.8,2471.492,13.29,0.057,237.1
2023-11-21T04:49:03,42.805,6.029,-0.018,-0.039,-0.009,110.0,109.0,106.0,13.4,1505.2,336.2,-0.7,1.8,2471.466,13.29,0.042,204.8
2023-11-21T04:52:03,42.805,6.029,-0.046,-0.039,-0.022,109.0,108.0,106.0,13.3,1505.2,343.3,-0.7,1.8,2471.46,13.29,0.06,229.7
2023-11-21T04:55:03,42.805,6.029,-0.045,-0.02,-0.049,109.0,107.0,105.0,13.3,1505.2,348.9,-0.8,1.8,2471.459,13.29,0.049,246.0
2023-11-21T04:58:03,42.805,6.029,-0.041,-0.022,-0.007,109.0,108.0,106.0,13.3,1505.2,344.5,-0.8,1.8,2471.457,13.29,0.046,241.8
2023-11-21T05:04:03,42.805,6.029,-0.052,-0.034,-0.071,109.0,107.0,105.0,13.3,1505.2,349.5,-0.8,1.8,2471.534,13.29,0.062,236.8
2023-11-21T05:07:03,42.805,6.029,-0.058,-0.018,0.006,110.0,108.0,104.0,13.4,1505.2,0.0,-0.8,1.8,2471.515,13.29,0.06,252.8
2023-11-21T05:10:03,42.805,6.029,-0.039,-0.044,-0.017,109.0,108.0,106.0,13.3,1505.2,346.2,-0.7,1.8,2471.485,13.29,0.058,221.6
2023-11-21T05:13:03,42.805,6.029,-0.05,-0.043,0.007,109.0,107.0,107.0,13.3,1505.2,0.0,-0.8,1.8,2471.495,13.29,0.065,229.3
2023-11-21T05:16:03,42.805,6.029,-0.036,-0.027,-0.012,109.0,108.0,106.0,13.4,1505.2,353.5,-0.8,1.8,2471.479,13.29,0.045,233.1
2023-11-21T05:19:03,42.805,6.029,-0.04,-0.012,-0.031,108.0,108.0,106.0,13.4,1505.2,1.7,-0.8,1.8,2471.479,13.29,0.041,253.3
2023-11-21T05:22:03,42.805,6.029,-0.043,-0.015,-0.052,109.0,108.0,105.0,13.4,1505.2,354.6,-0.8,1.8,2471.449,13.29,0.045,250.8
2023-11-21T05:25:03,42.805,6.029,-0.056,-0.019,-0.059,109.0,107.0,106.0,13.4,1505.2,359.1,-0.8,1.8,2471.488,13.29,0.059,251.3
2023-11-21T05:28:03,42.805,6.029,-0.042,-0.037,-0.045,109.0,108.0,106.0,13.4,1505.2,349.6,-0.8,1.8,2471.515,13.29,0.055,228.6
2023-11-21T05:31:03,42.805,6.029,-0.053,-0.021,-0.043,109.0,109.0,106.0,13.4,1505.2,356.2,-0.8,1.8,2471.441,13.29,0.057,248.4
2023-11-21T05:34:03,42.805,6.029,-0.047,-0.021,-0.026,110.0,108.0,105.0,13.4,1505.2,342.1,-0.7,1.8,2471.474,13.29,0.051,245.9
2023-11-21T05:37:03,42.805,6.029,-0.046,-0.033,-0.006,108.0,109.0,106.0,13.4,1505.2,349.1,-0.7,1.8,2471.46,13.29,0.056,234.3
2023-11-21T05:40:03,42.805,6.029,-0.032,-0.008,-0.028,108.0,109.0,106.0,13.4,1505.2,353.2,-0.8,1.8,2471.48,13.29,0.032,256.0
2023-11-21T05:43:03,42.805,6.029,-0.036,-0.027,-0.027,109.0,108.0,106.0,13.4,1505.2,337.0,-0.7,1.8,2471.43,13.29,0.045,233.1
2023-11-21T05:46:03,42.805,6.029,-0.051,-0.03,-0.023,109.0,109.0,106.0,13.4,1505.2,348.6,-0.8,1.8,2471.469,13.29,0.059,239.5
2023-11-21T05:49:03,42.805,6.029,-0.05,-0.022,-0.014,109.0,107.0,107.0,13.4,1505.2,1.7,-0.7,1.8,2471.443,13.29,0.054,246.3
2023-11-21T05:52:03,42.805,6.029,-0.038,-0.027,0.043,109.0,107.0,107.0,13.3,1505.2,355.4,-0.8,1.8,2471.443,13.29,0.046,234.6
2023-11-21T05:55:03,42.805,6.029,-0.039,-0.018,-0.007,110.0,109.0,106.0,13.3,1505.2,354.4,-0.8,1.8,2471.454,13.29,0.042,245.2
2023-11-21T05:58:03,42.805,6.029,-0.066,-0.02,-0.031,109.0,109.0,106.0,13.3,1505.2,353.6,-0.8,1.8,2471.483,13.29,0.068,253.1
2023-11-21T06:04:03,42.805,6.029,-0.054,-0.025,-0.011,108.0,108.0,105.0,13.4,1505.2,343.5,-0.8,1.8,2471.481,13.28,0.059,245.2
2023-11-21T06:07:03,42.805,6.029,-0.048,-0.027,-0.026,109.0,108.0,107.0,13.4,1505.2,350.6,-0.8,1.8,2471.47,13.29,0.055,240.6
2023-11-21T06:10:03,42.805,6.029,-0.05,-0.02,-0.043,108.0,109.0,106.0,13.4,1505.2,1.6,-0.8,1.8,2471.504,13.29,0.053,248.2
2023-11-21T06:13:03,42.805,6.029,-0.051,-0.03,-0.002,109.0,109.0,106.0,13.4,1505.2,341.3,-0.8,1.8,2471.488,13.29,0.059,239.5
2023-11-21T06:16:03,42.805,6.029,-0.033,-0.041,-0.009,109.0,109.0,106.0,13.4,1505.2,355.6,-0.8,1.8,2471.462,13.29,0.052,218.8
2023-11-21T06:19:03,42.805,6.029,-0.059,-0.011,-0.021,109.0,108.0,105.0,13.4,1505.2,0.8,-0.8,1.8,2471.503,13.29,0.06,259.4
2023-11-21T06:22:03,42.805,6.029,-0.048,-0.018,-0.035,110.0,108.0,105.0,13.4,1505.2,355.6,-0.8,1.8,2471.473,13.29,0.051,249.4
2023-11-21T06:25:03,42.805,6.029,-0.046,-0.022,-0.027,110.0,108.0,106.0,13.3,1505.2,338.3,-0.7,1.8,2471.477,13.29,0.05,244.4
2023-11-21T06:28:03,42.805,6.029,-0.04,-0.028,-0.014,109.0,108.0,106.0,13.3,1505.2,348.6,-0.7,1.8,2471.448,13.29,0.048,235.0
2023-11-21T06:31:03,42.805,6.029,-0.05,-0.04,-0.026,109.0,107.0,106.0,13.4,1505.2,345.5,-0.8,1.8,2471.501,13.29,0.064,231.3
2023-11-21T06:34:03,42.805,6.029,-0.058,-0.03,-0.018,109.0,107.0,106.0,13.4,1505.2,349.0,-0.7,1.8,2471.462,13.29,0.065,242.6
2023-11-21T06:37:03,42.805,6.029,-0.066,-0.019,-0.036,110.0,108.0,106.0,13.3,1505.2,351.6,-0.7,1.8,2471.466,13.29,0.068,253.9
2023-11-21T06:40:03,42.805,6.029,-0.033,-0.037,-0.028,110.0,109.0,106.0,13.3,1505.2,350.4,-0.8,1.8,2471.459,13.29,0.049,221.7
2023-11-21T06:43:03,42.805,6.029,-0.054,-0.015,-0.035,108.0,107.0,105.0,13.3,1505.2,354.4,-0.8,1.8,2471.479,13.29,0.056,254.5
2023-11-21T06:46:03,42.805,6.029,-0.062,-0.031,-0.033,109.0,108.0,106.0,13.4,1505.2,0.8,-0.8,1.8,2471.427,13.29,0.069,243.4
2023-11-21T06:49:03,42.805,6.029,-0.044,-0.028,-0.04,109.0,109.0,106.0,13.4,1505.2,341.5,-0.8,1.8,2471.467,13.29,0.052,237.5
2023-11-21T06:52:03,42.805,6.029,-0.035,-0.013,-0.028,109.0,108.0,105.0,13.3,1505.2,341.8,-0.8,1.8,2471.42,13.29,0.037,249.6
2023-11-21T06:55:03,42.805,6.029,-0.043,-0.035,-0.034,108.0,109.0,106.0,13.4,1505.2,343.1,-0.8,1.8,2471.465,13.29,0.055,230.9
2023-11-21T06:58:03,42.805,6.029,-0.041,-0.024,-0.014,108.0,108.0,106.0,13.4,1505.2,337.0,-0.8,1.8,2471.465,13.29,0.047,239.7
2023-11-21T07:04:03,42.805,6.029,-0.035,-0.02,-0.04,109.0,108.0,106.0,13.4,1505.2,352.4,-0.8,1.8,2471.499,13.28,0.04,240.3
2023-11-21T07:07:03,42.805,6.029,-0.06,-0.037,-0.045,109.0,108.0,106.0,13.3,1505.2,338.9,-0.8,1.8,2471.517,13.29,0.07,238.3
2023-11-21T07:10:03,42.805,6.029,-0.049,-0.02,-0.057,109.0,108.0,105.0,13.4,1505.2,347.4,-0.8,1.8,2471.5,13.29,0.052,247.8
2023-11-21T07:13:03,42.805,6.029,-0.023,-0.024,-0.026,110.0,108.0,106.0,13.4,1505.2,336.2,-0.7,1.8,2471.477,13.29,0.033,223.8
2023-11-21T07:16:03,42.805,6.029,-0.043,-0.042,-0.051,109.0,108.0,106.0,13.4,1505.2,342.1,-0.7,1.8,2471.467,13.29,0.06,225.7
2023-11-21T07:19:03,42.805,6.029,-0.066,-0.048,-0.049,110.0,108.0,106.0,13.4,1505.2,333.4,-0.8,1.8,2471.461,13.29,0.081,234.0
2023-11-21T07:22:03,42.805,6.029,-0.046,-0.019,-0.059,109.0,109.0,106.0,13.3,1505.2,345.9,-0.7,1.8,2471.474,13.29,0.049,247.6
2023-11-21T07:25:03,42.805,6.029,-0.041,-0.02,-0.018,110.0,108.0,106.0,13.3,1505.2,336.2,-0.8,1.8,2471.444,13.29,0.045,244.0
2023-11-21T07:28:03,42.805,6.029,-0.025,-0.032,-0.025,109.0,109.0,106.0,13.3,1505.2,347.2,-0.7,1.8,2471.485,13.29,0.04,218.0
2023-11-21T07:31:03,42.805,6.029,-0.029,-0.028,-0.015,108.0,108.0,106.0,13.4,1505.2,344.3,-0.8,1.8,2471.477,13.29,0.04,226.0
2023-11-21T07:34:03,42.805,6.029,-0.058,-0.011,-0.008,109.0,109.0,106.0,13.3,1505.2,351.8,-0.8,1.8,2471.438,13.29,0.059,259.3
2023-11-21T07:37:03,42.805,6.029,-0.052,-0.005,-0.039,109.0,109.0,106.0,13.4,1505.2,351.1,-0.8,1.8,2471.474,13.29,0.052,264.5
2023-11-21T07:40:03,42.805,6.029,-0.037,-0.045,-0.022,109.0,109.0,106.0,13.4,1505.2,337.0,-0.8,1.8,2471.448,13.29,0.058,219.4
2023-11-21T07:43:03,42.805,6.029,-0.057,-0.027,-0.039,109.0,108.0,106.0,13.4,1505.2,355.6,-0.7,1.8,2471.456,13.29,0.063,244.7
2023-11-21T07:46:03,42.805,6.029,-0.045,-0.029,-0.04,109.0,108.0,104.0,13.3,1505.2,333.8,-0.8,1.8,2471.486,13.29,0.053,237.2
2023-11-21T07:49:03,42.805,6.029,-0.036,-0.017,-0.004,108.0,108.0,107.0,13.3,1505.2,359.0,-0.8,1.8,2471.466,13.29,0.039,244.7
2023-11-21T07:52:03,42.805,6.029,-0.055,-0.025,-0.015,109.0,108.0,106.0,13.4,1505.2,348.8,-0.8,1.8,2471.455,13.29,0.06,245.6
2023-11-21T07:55:03,42.805,6.029,-0.055,-0.035,-0.035,110.0,109.0,105.0,13.3,1505.2,0.8,-0.8,1.8,2471.465,13.29,0.065,237.5
2023-11-21T07:58:03,42.805,6.029,-0.071,-0.015,-0.045,109.0,109.0,106.0,13.3,1505.2,350.5,-0.8,1.8,2471.497,13.29,0.072,258.1
2023-11-21T08:04:03,42.805,6.029,-0.08,-0.028,-0.036,108.0,107.0,106.0,13.3,1505.2,340.4,-0.8,1.8,2471.524,13.28,0.084,250.7
2023-11-21T08:07:03,42.805,6.029,-0.048,-0.028,-0.046,109.0,108.0,106.0,13.3,1505.2,339.5,-0.7,1.8,2471.469,13.28,0.055,239.7
2023-11-21T08:10:03,42.805,6.029,-0.059,-0.022,-0.045,109.0,109.0,106.0,13.3,1505.2,348.0,-0.8,1.8,2471.516,13.29,0.062,249.6
2023-11-21T08:13:03,42.805,6.029,-0.067,-0.02,-0.019,109.0,107.0,105.0,13.4,1505.2,353.4,-0.8,1.8,2471.483,13.29,0.069,253.4
2023-11-21T08:16:03,42.805,6.029,-0.048,-0.02,-0.031,111.0,108.0,105.0,13.4,1505.2,347.9,-0.7,1.8,2471.481,13.29,0.052,247.4
2023-11-21T08:19:03,42.805,6.029,-0.051,-0.004,0.0,110.0,109.0,105.0,13.4,1505.2,355.1,-0.8,1.8,2471.491,13.29,0.051,265.5
2023-11-21T08:22:03,42.805,6.029,-0.055,-0.028,-0.027,110.0,108.0,105.0,13.4,1505.2,343.3,-0.7,1.8,2471.486,13.29,0.061,243.0
2023-11-21T08:25:03,42.805,6.029,-0.056,-0.016,-0.038,109.0,109.0,105.0,13.4,1505.2,1.6,-0.8,1.8,2471.473,13.29,0.058,254.1
2023-11-21T08:28:03,42.805,6.029,-0.044,-0.024,-0.035,109.0,109.0,105.0,13.4,1505.2,342.4,-0.8,1.8,2471.458,13.29,0.05,241.4
2023-11-21T08:31:03,42.805,6.029,-0.045,-0.034,-0.038,110.0,109.0,106.0,13.4,1505.2,335.3,-0.8,1.8,2471.459,13.29,0.056,232.9
2023-11-21T08:34:03,42.805,6.029,-0.053,-0.009,-0.038,109.0,110.0,105.0,13.4,1505.2,346.2,-0.7,1.8,2471.442,13.29,0.053,260.4
2023-11-21T08:37:03,42.805,6.029,-0.064,-0.008,-0.018,109.0,108.0,105.0,13.4,1505.2,340.7,-0.8,1.8,2471.458,13.29,0.064,262.9
2023-11-21T08:40:03,42.805,6.029,-0.045,-0.018,-0.035,110.0,109.0,106.0,13.3,1505.2,359.1,-0.8,1.8,2471.49,13.29,0.048,248.2
2023-11-21T08:43:03,42.805,6.029,-0.055,-0.006,-0.032,111.0,109.0,106.0,13.3,1505.2,355.4,-0.8,1.8,2471.483,13.29,0.055,263.8
2023-11-21T08:46:03,42.805,6.029,-0.061,-0.013,-0.036,109.0,109.0,106.0,13.4,1505.2,344.5,-0.7,1.8,2471.47,13.29,0.062,258.0
2023-11-21T08:49:03,42.805,6.029,-0.065,-0.024,-0.018,111.0,107.0,106.0,13.3,1505.2,348.6,-0.8,1.8,2471.462,13.29,0.069,249.7
2023-11-21T08:52:03,42.805,6.029,-0.049,-0.015,-0.019,110.0,109.0,106.0,13.4,1505.2,346.3,-0.8,1.8,2471.457,13.29,0.051,253.0
2023-11-21T08:55:03,42.805,6.029,-0.049,-0.04,-0.041,110.0,109.0,106.0,13.4,1505.2,343.3,-0.8,1.8,2471.454,13.29,0.063,230.8
2023-11-21T08:58:03,42.805,6.029,-0.046,-0.042,-0.009,109.0,109.0,106.0,13.3,1505.2,341.8,-0.8,1.8,2471.458,13.29,0.062,227.6
2023-11-21T09:04:03,42.805,6.029,-0.056,-0.013,-0.012,111.0,109.0,105.0,13.4,1505.2,349.9,-0.8,1.8,2471.511,13.28,0.057,256.9
2023-11-21T09:07:03,42.805,6.029,-0.053,-0.048,-0.025,110.0,108.0,107.0,13.4,1505.2,347.4,-0.8,1.8,2471.557,13.29,0.071,227.8
2023-11-21T09:10:03,42.805,6.029,-0.048,-0.008,-0.023,108.0,108.0,106.0,13.4,1505.2,348.3,-0.8,1.9,2471.501,13.29,0.048,260.5
2023-11-21T09:13:03,42.805,6.029,-0.047,-0.031,-0.023,110.0,109.0,106.0,13.4,1505.2,344.5,-0.7,1.8,2471.504,13.29,0.056,236.6
2023-11-21T09:16:03,42.805,6.029,-0.038,-0.014,-0.019,109.0,108.0,106.0,13.4,1505.2,355.9,-0.8,1.8,2471.516,13.29,0.04,249.8
2023-11-21T09:19:03,42.805,6.029,-0.053,-0.032,-0.042,110.0,109.0,106.0,13.4,1505.2,353.0,-0.8,1.8,2471.511,13.29,0.061,238.9
2023-11-21T09:22:03,42.805,6.029,-0.06,-0.015,-0.062,110.0,109.0,107.0,13.3,1505.2,359.1,-0.8,1.8,2471.504,13.29,0.061,256.0
2023-11-21T09:25:03,42.805,6.029,-0.047,-0.019,-0.009,111.0,108.0,106.0,13.4,1505.2,353.6,-0.8,1.8,2471.486,13.29,0.05,248.0
2023-11-21T09:28:03,42.805,6.029,-0.048,-0.036,-0.012,111.0,109.0,106.0,13.4,1505.2,338.2,-0.7,1.8,2471.495,13.29,0.06,233.1
2023-11-21T09:31:03,42.805,6.029,-0.047,-0.013,-0.018,109.0,109.0,106.0,13.3,1505.2,350.0,-0.7,1.8,2471.484,13.29,0.048,254.5
2023-11-21T09:34:03,42.805,6.029,-0.06,-0.032,-0.012,110.0,109.0,106.0,13.4,1505.2,334.8,-0.8,1.8,2471.546,13.29,0.067,241.9
2023-11-21T09:37:03,42.805,6.029,-0.035,0.011,-0.029,109.0,109.0,107.0,13.4,1505.2,1.7,-0.7,1.8,2471.457,13.29,0.036,287.4
2023-11-21T09:40:03,42.805,6.029,-0.041,-0.034,-0.021,109.0,108.0,106.0,13.4,1505.2,342.3,-0.7,1.8,2471.491,13.29,0.053,230.3
2023-11-21T09:43:03,42.805,6.029,-0.055,-0.019,-0.027,110.0,108.0,106.0,13.4,1505.2,342.8,-0.8,1.8,2471.501,13.29,0.058,250.9
2023-11-21T09:46:03,42.805,6.029,-0.046,-0.025,-0.028,111.0,108.0,106.0,13.4,1505.2,348.1,-0.8,1.8,2471.47,13.29,0.052,241.5
2023-11-21T09:49:03,42.805,6.029,-0.063,-0.045,-0.035,111.0,109.0,107.0,13.3,1505.2,349.2,-0.8,1.8,2471.502,13.29,0.077,234.5
2023-11-21T09:52:03,42.805,6.029,-0.046,0.002,-0.024,109.0,107.0,106.0,13.4,1505.2,0.8,-0.8,1.8,2471.473,13.29,0.046,272.5
2023-11-21T09:55:03,42.805,6.029,-0.046,-0.019,0.0,110.0,110.0,106.0,13.4,1505.2,353.0,-0.8,1.8,2471.506,13.29,0.049,247.6
2023-11-21T09:58:03,42.805,6.029,-0.063,0.012,-0.014,110.0,109.0,106.0,13.3,1505.2,0.8,-0.7,1.8,2471.47,13.29,0.064,280.8
2023-11-21T10:04:03,42.805,6.029,-0.064,-0.013,-0.025,110.0,109.0,107.0,13.4,1505.2,358.3,-0.8,1.8,2471.565,13.28,0.065,258.5
2023-11-21T10:07:03,42.805,6.029,-0.052,-0.024,-0.004,110.0,108.0,106.0,13.3,1505.2,353.1,-0.8,1.8,2471.537,13.29,0.057,245.2
2023-11-21T10:10:03,42.805,6.029,-0.058,-0.016,-0.02,110.0,110.0,107.0,13.4,1505.2,0.0,-0.8,1.8,2471.556,13.29,0.06,254.6
2023-11-21T10:13:03,42.805,6.029,-0.044,-0.027,-0.056,112.0,109.0,105.0,13.4,1505.2,347.0,-0.8,1.8,2471.528,13.29,0.051,238.5
2023-11-21T10:16:03,42.805,6.029,-0.067,-0.027,-0.021,110.0,108.0,106.0,13.4,1505.2,347.4,-0.7,1.8,2471.532,13.29,0.072,248.1
2023-11-21T10:19:03,42.805,6.029,-0.054,-0.028,-0.005,110.0,109.0,106.0,13.4,1505.2,347.0,-0.8,1.8,2471.491,13.29,0.06,242.6
2023-11-21T10:22:03,42.805,6.029,-0.071,-0.024,-0.015,111.0,109.0,106.0,13.3,1505.2,346.4,-0.8,1.8,2471.533,13.29,0.074,251.3
2023-11-21T10:25:03,42.805,6.029,-0.064,0.006,-0.012,109.0,108.0,106.0,13.3,1505.2,355.0,-0.8,1.8,2471.535,13.29,0.064,275.4
2023-11-21T10:28:03,42.805,6.029,-0.047,-0.035,-0.018,112.0,108.0,107.0,13.4,1505.2,351.5,-0.8,1.8,2471.528,13.29,0.058,233.3
2023-11-21T10:31:03,42.805,6.029,-0.077,-0.013,-0.021,110.0,108.0,105.0,13.4,1505.2,336.1,-0.8,1.8,2471.513,13.29,0.078,260.4
2023-11-21T10:34:03,42.805,6.029,-0.05,-0.022,-0.035,110.0,108.0,107.0,13.4,1505.2,353.4,-0.8,1.8,2471.507,13.29,0.054,246.3
2023-11-21T10:37:02,42.805,6.029,-0.058,-0.033,-0.008,110.0,108.0,106.0,13.4,1505.2,339.6,-0.8,1.8,2471.532,13.29,0.066,240.4
2023-11-21T10:40:03,42.805,6.029,-0.057,-0.023,-0.036,110.0,109.0,106.0,13.4,1505.2,356.2,-0.7,1.8,2471.52,13.29,0.061,248.0
2023-11-21T10:43:03,42.805,6.029,-0.059,-0.007,-0.037,110.0,109.0,106.0,13.4,1505.2,339.0,-0.7,1.8,2471.519,13.29,0.059,263.2
2023-11-21T10:46:03,42.805,6.029,-0.05,-0.024,-0.015,110.0,108.0,106.0,13.4,1505.2,357.0,-0.8,1.8,2471.525,13.29,0.055,244.4
2023-11-21T10:49:03,42.805,6.029,-0.069,-0.054,-0.057,110.0,108.0,106.0,13.4,1505.2,341.0,-0.8,1.8,2471.518,13.29,0.087,232.0